Regional Weather Roundup
Issued by NWS

Home | Current Version | Previous Version | Text Only | Print | Product List | Glossary Off
Versions: 1 2 3 4 5 6 7 8 9 10 11 12 13 14 15 16 17 18 19 20 21 22 23 24 25 26 27 28 29 30 31 32 33 34 35 36 37 38 39 40 41 42 43 44 45 46 47 48 49 50

000
ASUS43 KMPX 250710
RWRMN
WEATHER ROUNDUP FOR MINNESOTA
NATIONAL WEATHER SERVICE TWIN CITIES/CHANHASSEN MN
200 AM CDT FRI APR 25 2014


NOTE: "FAIR" INDICATES FEW OR NO CLOUDS BELOW 12,000 FEET WITH NO
SIGNIFICANT WEATHER AND/OR OBSTRUCTIONS TO VISIBILITY. N/A MEANS
CURRENT SKY AND/OR WEATHER CONDITIONS ARE NOT AVAILABLE.

MNZ060>063-068>070-250800-
   Twin Cities Metro

CITY           SKY/WX    TMP DP  RH WIND       PRES   REMARKS
TWIN CITIES    PTCLDY    39  38  96 S5        29.72F
ST PAUL        CLEAR     36  35  96 VRB3      29.72F FOG
CRYSTAL        CLEAR     35  33  92 CALM      29.70F FOG
BLAINE         FOG       34  34 100 S3        29.70F VSB 1/2
EDEN PRAIRIE   FOG       37  36  96 CALM      29.71F VSB 1/4
LAKEVILLE        N/A     32  30  93 CALM      29.72F FOG
SOUTH ST PAUL  CLEAR     38  37  96 CALM      29.71F FOG
LAKE ELMO      FOG       32  32 100 CALM      29.72F VSB 1/2
$$
MNZ001>005-007-008-013>017-022>024-027-028-250800-
   Northwest Minnesota

CITY           SKY/WX    TMP DP  RH WIND       PRES   REMARKS
BEMIDJI        CLOUDY    32  32 100 CALM      29.66S FOG
HALLOCK        MIX PCPN  34  32  93 CALM      29.74R
ROSEAU         FLURRIES  34  28  80 NE3       29.72S
WARROAD        LGT SNOW  32  28  86 N5        29.73S WCI  27
THIEF RVR FALL CLOUDY    34  30  86 N3        29.72R
CROOKSTON      FOG       36  36 100 CALM      29.73S VSB 3/4
FOSSTON        CLOUDY    32  30  93 CALM      29.70S
DETROIT LAKES  FOG       36  36 100 NW5       29.71R VSB 1/4
MOORHEAD       CLOUDY    41  41 100 N5        29.73R FOG
PARK RAPIDS    FOG       32  32 100 SW5       29.68S VSB 1/4 WCI  27
$$
MNZ006-009>011-018-025>026-250800-
   North Central Minnesota

CITY           SKY/WX    TMP DP  RH WIND       PRES   REMARKS
BAUDETTE       LGT SNOW  33  32  96 NE5       29.70S FOG     WCI  29
FLAG ISLAND    LGT SNOW  34  32  93 NE6       29.72S WCI  29
INTL FALLS     LGT SNOW  33  31  92 NE6       29.68S FOG     WCI  28
WASKISH        MIX PCPN  34  32  93 CALM      29.68F
LONGVILLE      CLOUDY    32  32 100 SW5       29.66F WCI  27
GRAND RAPIDS   CLOUDY    30  28  93 CALM      29.65F VSB 1/4
CRANE LAKE     LGT SNOW  30  30 100 CALM      29.69F VSB 3/4
ORR            LGT SNOW  32  30  93 CALM      29.64S
COOK           LGT SNOW  32  30  93 CALM      29.66F
$$
MNZ012-019>021-037-250800-
   Northeast Minnesota

CITY           SKY/WX    TMP DP  RH WIND       PRES   REMARKS
DULUTH         CLOUDY    33  30  88 CALM      29.64F
ELY            LGT SNOW  32  30  93 SE3       29.65S
HIBBING        CLOUDY    33  31  92 CALM      29.65S FOG
EVELETH        MIX PCPN  32  32 100 CALM      29.66S
DULUTH HARBOR  CLOUDY    34  30  86 CALM      29.68F
TWO HARBORS    LGT SNOW  32  27  80 NE6       29.63F WCI  26
SILVER BAY     LGT SNOW  30  30 100 NE8G18    29.64S WCI  23
GRAND MARAIS     N/A     33  32  96 NE22G29   29.72F WCI  21
G MARAIS ARPRT LGT SNOW  30  27  86 E15G21    29.68F VSB 3/4 WCI  19
$$
MNZ029>031-032-039>041-046>048-054>057-064-250800-
   West Central Minnesota

CITY           SKY/WX    TMP DP  RH WIND       PRES   REMARKS
FERGUS FALLS   CLEAR     36  34  93 W5        29.69S
WHEATON        CLEAR     43  39  87 W6        29.75S
MORRIS         CLEAR     39  36  87 SW9       29.70S
ALEXANDRIA     CLEAR     36  34  93 W5        29.71S FOG
ELBOW LAKE     FAIR      35  34  98 NW5       29.72R WCI  31
WADENA         MOCLDY    32  32 100 CALM      29.69R FOG
GLENWOOD       CLEAR     37  36  93 W3        29.72R FOG
APPLETON       CLEAR     39  37  93 SW7       29.71F
BENSON         CLEAR     36  34  93 W7        29.71S
ORTONVILLE     PTCLDY    39  37  93 SW6       29.72F
MADISON        CLEAR     43  39  87 SW7       29.73S
WILLMAR        FAIR      39  37  93 SW7       29.73F
$$
MNZ033>034-036-042>043-049>051-058-059-250800-
   Central Minnesota

CITY           SKY/WX    TMP DP  RH WIND       PRES   REMARKS
ST CLOUD       FOG       34  32  93 CALM      29.71R VSB 1/2
SAUK CENTRE    FAIR      34  34  99 W5        29.71R WCI  30
PAYNESVILLE    CLEAR     33  33  98 CALM      29.72R FOG
AITKIN         CLOUDY    37  30  75 SW6       29.67S HAZE
PINE RIVER     CLOUDY    34  34 100 SW3       29.72F FOG
BRAINERD       FOG       39  35  86 W3        29.70S VSB 1/2
STAPLES        FOG       34  34 100 CALM      29.70S VSB 1/2
LONG PRAIRIE   FAIR      36  34  93 CALM      29.71S
LITTLE FALLS   FOG       32  30  93 CALM      29.71S VSB 1
LITCHFIELD     CLEAR     39  39 100 SW3       29.72S
BUFFALO        CLEAR     38  36  94 S3        29.71F
MAPLE LAKE     CLEAR     38  38 100 SW5       29.71S
$$
MNZ037-044-045-052-053-250800-
   East Central Minnesota

CITY           SKY/WX    TMP DP  RH WIND       PRES   REMARKS
PRINCETON      CLEAR     36  34  93 N5        29.71R FOG
MORA           CLOUDY    36  34  93 CALM      29.72F FOG
CAMBRIDGE      CLOUDY    37  32  81 CALM      29.69S HAZE
RUSH CITY      CLOUDY    36  35  96 CALM      29.71F FOG
MOOSE LAKE     FOG       32  32 100 CALM      29.68R VSB 1
HINCKLEY       CLOUDY    36  36 100 SW10      29.71R
CLOQUET          N/A     32  30  93 SW3       29.66S FOG
MCGREGOR       CLOUDY    32  32 100 CALM      29.68S VSB 3/4
$$
MNZ071>073-080-081-089-090-097-098-250800-
   Southwest Minnesota

CITY           SKY/WX    TMP DP  RH WIND       PRES   REMARKS
MONTEVIDEO     CLEAR     43  43 100 W8        29.74R
GRANITE FALLS  CLEAR     40  37  89 S10       29.74F
CANBY          CLEAR     44  40  87 SW10      29.75S
MARSHALL       CLEAR     43  36  75 SW14      29.73F
REDWOOD FALLS  CLEAR     44  40  85 SW13      29.73S
OLIVIA         CLEAR     36  34  93 SW5       29.72S
PIPESTONE      PTCLDY    39  37  93 SW7       29.75F
WINDOM         CLEAR     43  39  87 SW5       29.75F
WORTHINGTON    CLEAR     43  36  75 SW10      29.78S
JACKSON        CLEAR     39  36  87 S7        29.76S
TRACY          CLEAR     44  40  87 SW10      29.75S
SLAYTON        CLEAR     41  39  91 SW10      29.75F
$$
MNZ065>067-074>077-082>085-091>093-250800-
   South Central Minnesota

CITY           SKY/WX    TMP DP  RH WIND       PRES   REMARKS
MANKATO        CLEAR     39  37  93 SW6       29.74S
NEW ULM        CLEAR     41  41 100 SW8       29.73F
ST JAMES       CLEAR     39  37  93 SW6       29.76S
FAIRMONT       CLEAR     43  37  81 SW10      29.77S
GLENCOE          N/A     37  34  90 CALM      29.72F FOG
FARIBAULT      HAZE      39  34  81 S3        29.74S VSB<1/4
OWATONNA         N/A     37  36  93 S6        29.74F FOG
WASECA         FOG       34  32  93 CALM      29.76S VSB 1/4
ALBERT LEA     FOG       36  36 100 CALM      29.74F VSB 1/4
$$
MNZ078>079-086>088-094>096-250800-
   Southeast Minnesota

CITY           SKY/WX    TMP DP  RH WIND       PRES   REMARKS
ROCHESTER      CLEAR     36  34  92 W7        29.74S FOG
RED WING       CLEAR     36  34  93 CALM      29.73S FOG
STANTON        CLEAR     35  33  92 S3        29.72F FOG
DODGE CENTER   MOCLDY    37  37 100 SW7       29.74S FOG
WINONA         PTCLDY    41  37  87 CALM      29.74S
AUSTIN         FOG       37  37 100 CALM      29.74F VSB 1/4
PRESTON        PTCLDY    38  37  95 W7        29.74S
$$
ABBREVIATIONS USED IN REMARKS
   TC - TEMPERATURES IN CELSIUS
  WCI - WIND CHILL INDEX
   HX - HEAT INDEX
  VSB - VISIBILITY
$$


USA.gov is the U.S. government's official web portal to all federal, state and local government web resources and services.